This is the latest recevied weather packets stored in our database for station/object KC9GSD. If no packets are shown the sender has not sent any weather packets the latest 10 day(s).
| Time | Temp. | Humidity | Pressure | Rain* | Wind** | Luminosity | Snow |
|---|---|---|---|---|---|---|---|
| 1777550564 | 13.33° C | 92% | 1012.7 hPa | 0 mm | - | 69 W/m² | - |
| 1777550259 | 13.89° C | 93% | 1012.7 hPa | 0 mm | - | 72 W/m² | - |
| 1777549957 | 13.33° C | 93% | 1012.6 hPa | 0 mm | - | 55 W/m² | - |
| 1777549653 | 13.89° C | 94% | 1012.5 hPa | 0 mm | - | 54 W/m² | - |
| 1777549348 | 13.89° C | 95% | 1012.3 hPa | 0 mm | - | 52 W/m² | - |
| 1777549046 | 13.33° C | 96% | 1012.1 hPa | 0 mm | - | 49 W/m² | - |
| 1777548742 | 13.89° C | 97% | 1012 hPa | 0 mm | - | 30 W/m² | - |
| 1777548440 | 13.89° C | 97% | 1011.7 hPa | 0 mm | - | 22 W/m² | - |
| 1777548136 | 13.89° C | 97% | 1012 hPa | 0 mm | - | 17 W/m² | - |
| 1777547832 | 13.33° C | 97% | 1011.9 hPa | 0 mm | - | 15 W/m² | - |
| 1777547528 | 13.33° C | 97% | 1011.6 hPa | 0 mm | - | 10 W/m² | - |
| 1777547226 | 13.33° C | 97% | 1011.7 hPa | 0 mm | - | 7 W/m² | - |
| 1777546923 | 13.33° C | 97% | 1011.8 hPa | 0 mm | - | 5 W/m² | - |
| 1777546620 | 13.33° C | 97% | 1011.5 hPa | 0 mm | - | 3 W/m² | - |
| 1777546316 | 13.33° C | 97% | 1011.6 hPa | 0 mm | - | 1 W/m² | - |
| 1777546014 | 13.33° C | 97% | 1011.7 hPa | 0 mm | - | 0 W/m² | - |
| 1777545709 | 13.33° C | 97% | 1011.9 hPa | 0 mm | - | 0 W/m² | - |
| 1777545407 | 13.33° C | 96% | 1011.9 hPa | 0 mm | - | 0 W/m² | - |
| 1777545104 | 13.89° C | 96% | 1011.7 hPa | 0 mm | - | 0 W/m² | - |
| 1777544801 | 13.89° C | 97% | 1011.8 hPa | 0 mm | - | 0 W/m² | - |
| 1777544496 | 13.89° C | 96% | 1011.7 hPa | 0 mm | - | 0 W/m² | - |
| 1777544193 | 13.89° C | 97% | 1011.6 hPa | 0 mm | - | 0 W/m² | - |
| 1777543891 | 13.89° C | 97% | 1011.7 hPa | 0 mm | - | 0 W/m² | - |
| 1777543587 | 13.89° C | 97% | 1011.6 hPa | 0 mm | - | 0 W/m² | - |
| 1777543283 | 13.89° C | 97% | 1011.8 hPa | 0 mm | - | 0 W/m² | - |
* Rain latest hour (hover to see other rain measurements)
** Current wind speed in m/s (hover to see current wind gust speed)